Hourly Weather Koziolek

Today, 30 October, Friday

Time Temperature Precipitation Wind Pressure Humidity
00:00 +6°C° 0 mm 4 mps 751 mmHg 84%
01:00 +6°C° 0 mm 4 mps 751 mmHg 84%
02:00 +6°C° 0 mm 4 mps 751 mmHg 87%
03:00 +5°C° 0 mm 4 mps 751 mmHg 90%
04:00 +5°C° 0 mm 4 mps 751 mmHg 94%
05:00 +5°C° 0 mm 4 mps 751 mmHg 92%
06:00 +5°C° 0 mm 4 mps 751 mmHg 91%
07:00 +5°C° 0 mm 4 mps 751 mmHg 90%
08:00 +7°C° 0 mm 3 mps 752 mmHg 87%
09:00 +8°C° 0 mm 3 mps 752 mmHg 83%
10:00 +8°C° 0 mm 3 mps 752 mmHg 80%
11:00 +9°C° 0 mm 3 mps 752 mmHg 77%
12:00 +9°C° 0 mm 3 mps 751 mmHg 74%
13:00 +10°C° 0 mm 3 mps 751 mmHg 70%
14:00 +10°C° 0 mm 3 mps 751 mmHg 73%
15:00 +9°C° 0 mm 2 mps 751 mmHg 75%
16:00 +9°C° 0 mm 2 mps 751 mmHg 78%
17:00 +9°C° 0.3 mm 2 mps 751 mmHg 81%
18:00 +9°C° 0.3 mm 1 mps 751 mmHg 85%
19:00 +9°C° 0.3 mm 1 mps 751 mmHg 89%
20:00 +9°C° 0.7 mm 1 mps 751 mmHg 90%
21:00 +9°C° 0.7 mm 1 mps 751 mmHg 92%
22:00 +9°C° 0.7 mm 1 mps 751 mmHg 93%
23:00 +9°C° 0 mm 1 mps 752 mmHg 93%

Tomorrow, 31 October, Saturday

Time Temperature Precipitation Wind Pressure Humidity
00:00 +9°C° 0 mm 1 mps 752 mmHg 93%
01:00 +8°C° 0 mm 1 mps 752 mmHg 93%
02:00 +8°C° 0 mm 1 mps 753 mmHg 93%
03:00 +8°C° 0 mm 1 mps 753 mmHg 94%
04:00 +7°C° 0 mm 1 mps 754 mmHg 94%
05:00 +7°C° 0 mm 1 mps 754 mmHg 94%
06:00 +7°C° 0 mm 1 mps 755 mmHg 93%
07:00 +6°C° 0 mm 1 mps 755 mmHg 93%
08:00 +8°C° 0 mm 1 mps 756 mmHg 87%
09:00 +9°C° 0 mm 1 mps 756 mmHg 81%
10:00 +10°C° 0 mm 1 mps 756 mmHg 74%
11:00 +11°C° 0 mm 1 mps 756 mmHg 71%
12:00 +12°C° 0 mm 1 mps 756 mmHg 68%
13:00 +11°C° 0 mm 0 mps 756 mmHg 64%
14:00 +11°C° 0 mm 0 mps 756 mmHg 68%
15:00 +10°C° 0 mm 0 mps 756 mmHg 71%
16:00 +9°C° 0 mm 0 mps 756 mmHg 74%
17:00 +9°C° 0 mm 0 mps 757 mmHg 77%
18:00 +9°C° 0 mm 1 mps 757 mmHg 80%
19:00 +9°C° 0 mm 1 mps 757 mmHg 83%
20:00 +8°C° 0 mm 1 mps 757 mmHg 85%
21:00 +8°C° 0 mm 1 mps 757 mmHg 86%
22:00 +7°C° 0 mm 2 mps 757 mmHg 88%
23:00 +6°C° 0 mm 2 mps 757 mmHg 89%

Day after tomorrow, 1 November, Sunday

Time Temperature Precipitation Wind Pressure Humidity
00:00 +6°C° 0 mm 2 mps 757 mmHg 90%
01:00 +6°C° 0 mm 2 mps 757 mmHg 91%
02:00 +5°C° 0 mm 2 mps 756 mmHg 91%
03:00 +5°C° 0 mm 2 mps 756 mmHg 91%
04:00 +5°C° 0 mm 2 mps 756 mmHg 91%
05:00 +5°C° 0 mm 2 mps 755 mmHg 92%
06:00 +3°C° 0 mm 3 mps 755 mmHg 92%
07:00 +3°C° 0 mm 3 mps 755 mmHg 92%
08:00 +5°C° 0 mm 3 mps 755 mmHg 86%
09:00 +6°C° 0 mm 4 mps 755 mmHg 80%
10:00 +7°C° 0 mm 5 mps 755 mmHg 74%
11:00 +8°C° 0 mm 5 mps 754 mmHg 70%
12:00 +9°C° 0 mm 5 mps 754 mmHg 67%
13:00 +10°C° 0 mm 5 mps 753 mmHg 64%
14:00 +9°C° 0 mm 5 mps 753 mmHg 67%
15:00 +10°C° 0 mm 4 mps 752 mmHg 70%
16:00 +8°C° 0 mm 4 mps 752 mmHg 73%
17:00 +8°C° 0 mm 4 mps 751 mmHg 75%
18:00 +8°C° 0 mm 4 mps 751 mmHg 77%
19:00 +7°C° 0 mm 5 mps 751 mmHg 79%
20:00 +7°C° 0 mm 4 mps 751 mmHg 81%
21:00 +7°C° 0 mm 4 mps 750 mmHg 84%
22:00 +7°C° 0 mm 4 mps 750 mmHg 86%
23:00 +7°C° 0.2 mm 4 mps 750 mmHg 89%

2 November, Monday

Time Temperature Precipitation Wind Pressure Humidity
00:00 +8°C° 0.2 mm 3 mps 750 mmHg 92%
01:00 +9°C° 0.2 mm 3 mps 750 mmHg 95%
02:00 +9°C° 0.1 mm 3 mps 749 mmHg 95%
03:00 +9°C° 0.1 mm 3 mps 749 mmHg 96%
04:00 +10°C° 0.1 mm 3 mps 749 mmHg 97%
05:00 +10°C° 0 mm 3 mps 749 mmHg 97%
06:00 +10°C° 0 mm 3 mps 749 mmHg 96%
07:00 +10°C° 0 mm 4 mps 749 mmHg 96%
08:00 +11°C° 0 mm 3 mps 749 mmHg 96%
09:00 +11°C° 0 mm 3 mps 749 mmHg 95%
10:00 +11°C° 0 mm 3 mps 749 mmHg 94%
11:00 +12°C° 0 mm 4 mps 749 mmHg 93%
12:00 +12°C° 0 mm 4 mps 749 mmHg 92%
13:00 +12°C° 0 mm 4 mps 749 mmHg 91%
14:00 +12°C° 0 mm 4 mps 748 mmHg 92%
15:00 +13°C° 0 mm 4 mps 748 mmHg 92%
16:00 +13°C° 0 mm 4 mps 748 mmHg 93%
17:00 +13°C° 0 mm 4 mps 748 mmHg 93%
18:00 +13°C° 0 mm 4 mps 748 mmHg 93%
19:00 +13°C° 0 mm 4 mps 748 mmHg 93%
20:00 +13°C° 0 mm 4 mps 748 mmHg 93%
21:00 +13°C° 0 mm 4 mps 748 mmHg 93%
22:00 +13°C° 0 mm 4 mps 748 mmHg 93%
23:00 +13°C° 0 mm 4 mps 748 mmHg 92%

3 November, Tuesday

Time Temperature Precipitation Wind Pressure Humidity
00:00 +13°C° 0 mm 4 mps 748 mmHg 91%
01:00 +13°C° 0 mm 4 mps 748 mmHg 90%
02:00 +13°C° 0 mm 4 mps 748 mmHg 91%
03:00 +13°C° 0 mm 4 mps 748 mmHg 91%
04:00 +14°C° 0 mm 4 mps 748 mmHg 91%
05:00 +14°C° 0 mm 4 mps 749 mmHg 91%
06:00 +14°C° 0 mm 4 mps 749 mmHg 91%
07:00 +14°C° 0 mm 4 mps 750 mmHg 91%
08:00 +14°C° 0.2 mm 4 mps 750 mmHg 89%
09:00 +14°C° 0.2 mm 4 mps 751 mmHg 87%
10:00 +15°C° 0.2 mm 5 mps 752 mmHg 86%
11:00 +15°C° 0 mm 5 mps 752 mmHg 79%
12:00 +14°C° 0 mm 5 mps 753 mmHg 71%
13:00 +14°C° 0 mm 5 mps 754 mmHg 64%
14:00 +13°C° 0 mm 4 mps 754 mmHg 64%
15:00 +12°C° 0 mm 3 mps 755 mmHg 64%
16:00 +11°C° 0 mm 3 mps 755 mmHg 64%
17:00 +12°C° 0 mm 2 mps 756 mmHg 67%
18:00 +10°C° 0 mm 2 mps 756 mmHg 70%
19:00 +9°C° 0 mm 2 mps 757 mmHg 73%
20:00 +9°C° 0 mm 2 mps 757 mmHg 74%
21:00 +9°C° 0 mm 1 mps 757 mmHg 75%
22:00 +9°C° 0 mm 1 mps 757 mmHg 76%
23:00 +9°C° 0 mm 1 mps 758 mmHg 76%

4 November, Wednesday

Time Temperature Precipitation Wind Pressure Humidity
00:00 +8°C° 0 mm 1 mps 758 mmHg 75%
01:00 +8°C° 0 mm 1 mps 758 mmHg 75%
02:00 +7°C° 0 mm 0 mps 758 mmHg 75%
03:00 +7°C° 0 mm 0 mps 758 mmHg 74%
04:00 +7°C° 0 mm 0 mps 758 mmHg 74%
05:00 +7°C° 0 mm 0 mps 758 mmHg 73%
06:00 +7°C° 0 mm 0 mps 759 mmHg 73%
07:00 +7°C° 0 mm 0 mps 759 mmHg 72%
08:00 +8°C° 0 mm 0 mps 759 mmHg 69%
09:00 +8°C° 0 mm 0 mps 760 mmHg 66%
10:00 +9°C° 0 mm 0 mps 760 mmHg 63%
11:00 +10°C° 0 mm 1 mps 760 mmHg 61%
12:00 +11°C° 0 mm 1 mps 760 mmHg 59%
13:00 +11°C° 0 mm 1 mps 761 mmHg 57%
14:00 +11°C° 0 mm 1 mps 761 mmHg 59%
15:00 +10°C° 0 mm 1 mps 761 mmHg 62%
16:00 +10°C° 0 mm 1 mps 761 mmHg 65%
17:00 +10°C° 0 mm 1 mps 762 mmHg 66%
18:00 +10°C° 0 mm 1 mps 762 mmHg 68%
19:00 +9°C° 0 mm 1 mps 763 mmHg 69%
20:00 +9°C° 0 mm 1 mps 763 mmHg 71%
21:00 +9°C° 0 mm 1 mps 763 mmHg 73%
22:00 +8°C° 0 mm 1 mps 763 mmHg 75%
23:00 +8°C° 0 mm 1 mps 764 mmHg 77%
Show more